User: anonymous   Login
Location: Arcueil
(48.7999°N, 2.3326°E)
Time: 20:12:47
(UTC+00:00)
Language:

Cosmos 1943 Rocket - Orbit

View from above orbital plane
View from above orbital plane
View from above satellite
View from above satellite

Ground track
Ground track

The orbit data is extracted from the following two-line orbital elements,

1 19120U 88039B   24151.61396429  .00000219  00000-0  12664-3 0  9998
2 19120  71.0154 358.7133 0024064 255.5288 104.3167 14.19411774866410
Epoch (UTC): 30 May 2024 14:44:06
Eccentricity: 0.0024064
inclination: 71.0154°
perigee height: 810 km
apogee height: 844 km
right ascension of ascending node: 358.7133°
argument of perigee: 255.5288°
revolutions per day: 14.19411774
mean anomaly at epoch: 104.3167°
orbit number at epoch: 86641

The dashed part of the orbit path shows where the satellite is in the earth's shadow,  

DLR